Wetbulb
72.27 73.95 73.12 73.37 73.18 73.28 73.16 73.45 73.97 74.33 74.53 74.63 74.85 74.66 74.63 74.69 74.95 75.06 75.11 74.96 75.00 74.44 73.88 73.65 73.05 72.86 72.27 71.99 72.14 72.49 72.74 73.05 73.10 73.36 73.33 73.48 73.45 73.23 72.89 72.17 72.49 71.27 73.16
74.44 74.35 72.85 73.12 73.24 72.96 72.82 73.11 73.91 74.43 74.85 74.61 74.63 74.75 74.77 74.80 74.87 74.94 75.05 74.86 74.68 74.51 74.30 73.61 73.10 72.62 71.93 71.34 71.33 71.75 72.01 72.33 72.63 72.69 73.38 73.28 73.38 72.96 72.71 72.19 71.82 71.38 72.39
74.57 74.53 73.68 72.82 73.20 73.14 73.20 73.38 73.93 74.75 74.75 74.86 74.85 74.75 74.93 74.71 74.53 74.63 74.63 74.81 74.68 74.42 74.01 73.23 73.18 72.70 71.50 70.95 70.59 70.76 71.42 71.54 71.84 72.66 73.23 72.97 71.84 73.05 72.51 71.77 71.38 72.39 72.32
74.74 74.96 74.25 72.61 73.03 73.46 73.59 73.51 73.59 74.11 74.34 74.58 74.65 74.68 74.63 74.24 74.26 74.04 74.14 74.17 73.98 73.55 73.15 73.10 72.71 73.05 71.87 70.44 70.27 70.25 70.59 71.27 71.51 72.52 72.54 72.38 72.23 72.58 72.45 71.87 71.52 71.72 71.67
74.17 75.09 73.75 72.03 72.26 72.83 73.23 73.41 73.32 73.17 73.30 73.72 73.95 73.97 73.72 73.80 73.60 73.60 73.35 73.30 73.21 73.17 73.00 73.09 73.24 73.28 71.94 70.69 70.00 70.00 70.05 70.51 71.42 71.67 72.93 70.90 71.61 72.52 72.46 71.99 71.48 71.85 72.46
74.20 74.52 71.43 71.17 72.16 72.84 73.07 73.00 73.00 72.91 72.68 72.95 73.24 73.69 73.36 73.28 73.16 72.66 72.41 72.46 72.81 73.18 73.29 73.31 73.31 73.21 72.02 71.06 70.43 70.14 70.36 70.36 70.36 70.44 71.21 71.77 70.98 72.32 72.26 72.32 72.19 72.44 71.61
73.96 74.01 73.52 70.85 71.81 72.50 72.78 72.57 72.24 72.04 72.19 72.74 73.37 73.47 73.13 72.71 72.81 72.44 72.19 72.11 72.53 72.61 72.66 72.91 73.33 73.53 72.32 71.16 70.62 70.40 70.11 69.62 69.54 69.65 69.57 70.80 71.87 72.81 71.91 72.31 72.08 71.55 71.46
73.50 73.66 73.24 71.21 70.89 70.85 70.90 70.70 70.55 70.62 71.30 71.62 72.05 72.64 72.93 72.44 72.26 72.04 71.99 71.89 72.01 72.12 71.92 72.00 71.85 71.98 71.80 71.66 70.53 69.61 69.00 68.75 69.78 69.51 69.75 69.87 71.64 72.38 71.66 72.04 72.32 71.46 71.46
74.20 73.46 73.33 72.72 70.48 68.22 67.82 67.82 67.98 68.90 69.71 70.12 70.20 70.35 70.23 69.90 69.62 69.22 69.29 69.32 69.68 69.68 69.62 69.35 69.42 69.54 69.83 70.26 70.44 69.20 68.05 68.32 69.96 70.05 69.55 69.79 71.03 71.28 70.90 71.94 71.89 71.67 71.27
73.01 73.11 72.52 72.26 71.86 70.86 69.16 66.08 66.03 66.36 66.83 67.64 68.64 68.73 68.58 68.32 68.35 68.21 67.64 66.67 67.15 67.20 67.45 67.40 67.25 67.40 67.67 68.44 68.59 68.67 67.93 67.44 70.56 70.74 70.74 70.35 70.50 70.71 70.11 71.28 71.68 72.01 71.14
71.65 71.52 71.73 71.44 71.20 70.56 69.10 66.67 65.60 65.85 66.24 66.97 67.33 67.44 67.90 69.93 69.18 68.90 63.36 63.20 63.29 64.41 65.44 65.22 65.59 66.43 67.13 67.17 67.58 67.86 68.32 71.31 70.76 70.77 69.99 68.94 70.51 71.69 71.03 70.83 71.05 71.60 71.06
70.44 71.73 70.54 70.44 70.12 70.04 68.70 68.93 69.04 68.86 68.99 68.91 68.83 69.59 69.02 69.41 67.64 67.29 63.45 60.89 60.44 61.08 63.02 63.95 65.34 65.89 66.28 69.92 70.27 68.69 71.42 71.36 72.09 71.08 70.94 68.62 70.35 71.77 71.33 71.41 70.96 71.09 70.90
70.08 70.96 71.02 68.87 69.37 69.72 68.11 67.51 67.69 67.86 67.52 66.86 67.64 68.20 68.48 68.66 68.41 68.28 67.85 67.20 66.67 63.70 66.30 66.44 67.53 67.69 67.58 67.72 68.15 68.94 69.11 70.28 70.26 71.04 70.26 66.58 69.93 71.58 70.68 70.56 70.82 70.89 70.68
68.15 69.30 70.78 70.73 70.29 69.85 68.37 66.82 66.07 65.21 65.11 64.21 63.59 64.86 66.86 66.65 65.71 64.89 64.08 64.08 63.75 63.13 62.87 63.64 64.21 64.15 64.66 65.44 65.89 66.16 66.96 67.72 68.77 69.10 70.13 66.01 67.46 68.35 67.91 68.32 68.19 68.75 69.77
65.85 66.33 67.51 67.88 67.12 66.21 65.21 64.14 63.57 62.97 62.64 62.21 61.11 60.53 61.68 61.43 61.07 61.06 60.40 60.08 59.59 59.18 59.03 59.08 59.50 59.25 59.88 61.20 62.71 63.29 65.00 66.12 66.75 66.71 67.99 65.70 66.05 66.34 66.63 67.27 67.87 68.04 68.22
64.37 64.42 65.13 64.62 64.67 64.16 63.45 63.16 61.95 61.38 60.52 59.59 58.56 57.91 58.57 58.46 58.29 58.25 57.90 57.11 56.73 56.92 56.80 57.09 57.02 57.19 57.69 58.90 59.20 60.17 60.51 61.69 64.07 65.70 65.61 66.58 64.55 65.30 66.03 66.59 66.68 66.66 67.29
63.83 63.99 63.26 62.92 63.18 62.40 61.78 61.15 60.34 59.18 59.02 57.52 56.27 56.03 55.98 55.83 56.17 56.37 55.57 55.44 55.28 55.90 56.25 56.28 56.02 56.26 55.86 56.55 56.78 57.56 57.96 59.03 59.37 61.13 62.98 64.71 65.31 62.15 59.26 61.85 63.38 64.14 65.25
63.45 62.69 62.05 61.29 61.64 61.18 60.37 59.79 58.55 57.80 57.07 56.21 55.46 54.74 54.51 54.51 55.19 55.23 54.48 54.19 54.58 55.05 54.72 54.30 54.34 54.29 54.42 54.81 55.94 55.26 55.72 56.46 56.98 59.05 59.84 60.91 60.55 57.92 55.85 55.86 55.90 58.67 61.05
62.65 62.27 60.35 60.68 60.12 59.54 59.14 57.95 57.04 56.36 55.17 54.38 54.23 53.84 53.68 53.34 53.90 54.14 53.50 53.35 54.16 53.48 53.42 52.80 53.05 53.31 52.75 53.35 52.75 53.17 54.55 55.54 56.74 56.57 58.47 61.64 60.74 59.25 58.42 53.59 52.85 53.54 56.61
61.65 61.65 59.95 59.70 59.12 58.54 57.53 56.74 55.44 54.29 53.71 53.46 52.92 52.69 53.16 52.51 52.70 53.22 52.90 52.72 53.03 52.39 52.22 51.83 51.68 52.73 52.73 51.88 51.25 53.31 55.57 55.73 56.83 58.41 60.94 58.97 57.42 56.65 55.87 54.08 54.20 52.18 52.97
60.03 60.00 58.82 57.99 57.86 57.10 56.22 54.99 54.00 52.41 51.82 51.78 51.91 51.91 51.91 51.91 51.64 52.06 52.07 51.82 52.19 51.27 51.11 51.03 50.72 50.73 51.36 51.40 51.23 51.02 54.44 57.24 57.91 58.05 58.84 56.92 55.66 55.20 54.08 54.28 53.25 51.83 51.47
58.24 59.11 58.21 57.54 57.21 57.17 56.97 56.57 55.52 53.26 52.34 51.86 51.35 50.84 50.79 50.61 50.52 50.23 50.74 50.59 50.45 50.14 49.81 49.49 49.28 48.76 50.35 50.48 47.20 49.58 49.84 53.60 53.42 55.62 56.62 55.86 54.70 54.73 54.11 53.12 51.78 51.32 51.23
56.95 57.91 57.57 57.55 57.35 57.57 57.30 55.39 53.69 52.17 51.13 50.21 50.11 49.62 49.14 49.08 49.26 49.68 49.32 49.67 49.79 49.63 48.14 47.66 47.46 47.40 46.68 48.85 49.06 46.67 45.34 45.91 46.69 53.43 53.52 53.69 53.25 51.10 51.56 52.29 51.86 52.03 51.58
56.83 57.88 57.92 57.57 57.15 56.63 55.73 54.01 52.10 50.16 49.34 50.90 50.25 49.43 48.31 48.31 47.93 48.50 48.59 48.25 47.84 47.87 46.83 46.48 46.77 46.79 46.43 45.10 47.30 47.59 48.31 46.67 43.73 43.72 49.35 50.60 49.56 49.35 49.57 49.50 50.54 51.64 51.24
56.60 56.31 56.95 56.96 56.32 55.24 54.56 54.83 52.80 51.81 51.28 50.39 49.33 48.52 48.02 47.28 47.10 46.62 46.79 46.28 45.71 45.57 45.11 44.79 44.98 44.90 45.18 44.61 44.73 44.25 45.53 47.13 46.59 42.62 42.45 44.77 47.65 48.40 49.21 49.12 48.54 48.23 47.29
56.23 55.73 56.04 55.39 54.67 54.44 54.29 54.12 53.08 51.80 50.06 48.65 48.40 47.91 47.34 46.56 45.09 44.46 44.23 44.00 44.04 43.40 43.26 43.55 43.81 43.16 43.25 43.49 43.32 43.43 42.33 41.38 40.95 41.13 40.50 42.24 41.72 45.34 48.28 48.31 46.69 45.90 45.63
MSLP
1008.53 1010.21 1011.31 1011.63 1011.88 1012.17 1012.34 1012.59 1012.68 1012.76 1012.65 1012.96 1013.14 1013.34 1013.63 1014.00 1014.13 1014.24 1014.42 1014.60 1014.71 1014.85 1014.94 1015.07 1015.14 1015.24 1015.28 1015.32 1015.35 1015.38 1015.39 1015.32 1015.24 1015.09 1015.03 1014.96 1015.21 1015.33 1015.42 1015.41 1015.74 1015.46 1016.05
1009.01 1010.47 1011.47 1011.75 1012.11 1012.37 1012.64 1012.96 1013.10 1013.12 1013.07 1013.33 1013.41 1013.61 1013.85 1014.11 1014.41 1014.57 1014.64 1014.79 1014.91 1015.02 1015.06 1015.20 1015.25 1015.30 1015.41 1015.48 1015.54 1015.49 1015.45 1015.45 1015.40 1015.28 1015.07 1015.09 1015.19 1015.51 1015.69 1015.85 1016.09 1015.92 1016.14
1009.48 1010.83 1011.34 1011.93 1012.24 1012.57 1012.89 1013.28 1013.41 1013.39 1013.53 1013.76 1013.87 1013.99 1014.26 1014.43 1014.70 1014.92 1015.03 1015.11 1015.12 1015.19 1015.20 1015.26 1015.29 1015.40 1015.54 1015.69 1015.71 1015.69 1015.65 1015.58 1015.53 1015.35 1015.07 1015.03 1014.90 1015.32 1015.88 1016.07 1016.18 1016.22 1016.25
1009.52 1010.35 1011.38 1012.25 1012.36 1012.62 1012.82 1013.09 1013.44 1013.61 1013.85 1014.04 1014.12 1014.23 1014.41 1014.63 1014.82 1015.06 1015.23 1015.35 1015.36 1015.42 1015.42 1015.45 1015.48 1015.48 1015.63 1015.74 1015.75 1015.74 1015.79 1015.84 1015.77 1015.36 1014.66 1013.64 1013.99 1015.27 1015.88 1016.05 1016.17 1016.31 1016.40
1009.22 1010.15 1011.90 1012.50 1012.70 1013.01 1012.94 1013.18 1013.36 1013.73 1014.04 1014.13 1014.30 1014.28 1014.36 1014.57 1014.82 1015.00 1015.21 1015.30 1015.43 1015.54 1015.55 1015.52 1015.54 1015.66 1015.81 1015.94 1015.97 1015.99 1016.00 1015.88 1015.74 1015.35 1014.13 1013.91 1013.78 1014.95 1015.67 1016.03 1016.25 1016.31 1016.36
1009.74 1010.87 1012.58 1012.77 1013.03 1013.07 1013.39 1013.54 1013.71 1014.08 1014.30 1014.33 1014.52 1014.58 1014.50 1014.66 1014.82 1015.03 1015.17 1015.30 1015.42 1015.48 1015.55 1015.54 1015.59 1015.76 1015.75 1015.71 1015.79 1015.90 1015.92 1015.93 1015.84 1014.40 1013.56 1014.04 1014.57 1015.10 1015.55 1015.97 1016.06 1016.10 1016.21
1010.39 1011.74 1012.52 1013.09 1013.26 1013.24 1013.57 1013.90 1014.07 1014.40 1014.50 1014.53 1014.65 1014.71 1014.75 1014.85 1015.00 1015.15 1015.27 1015.38 1015.44 1015.50 1015.61 1015.61 1015.64 1015.67 1015.71 1015.76 1015.78 1015.84 1015.91 1015.88 1015.51 1014.14 1013.52 1013.97 1014.22 1015.07 1015.41 1015.71 1015.82 1015.84 1015.98
1010.67 1011.67 1012.54 1013.42 1013.61 1013.80 1013.93 1014.20 1014.38 1014.63 1014.74 1014.84 1014.89 1014.97 1014.98 1015.09 1015.23 1015.38 1015.45 1015.57 1015.66 1015.69 1015.60 1015.62 1015.66 1015.63 1015.64 1015.68 1015.69 1015.78 1015.80 1015.82 1015.33 1014.50 1013.81 1013.64 1014.29 1014.83 1015.26 1015.57 1015.66 1015.76 1015.75
1010.54 1011.44 1012.14 1012.99 1013.86 1014.19 1014.35 1014.58 1014.84 1014.98 1014.90 1015.00 1015.14 1015.25 1015.27 1015.37 1015.50 1015.67 1015.73 1015.82 1015.85 1015.85 1015.73 1015.67 1015.60 1015.57 1015.58 1015.58 1015.57 1015.58 1015.65 1015.70 1015.47 1014.46 1013.75 1013.50 1014.22 1014.59 1014.98 1015.17 1015.26 1015.57 1015.66
1010.95 1011.78 1012.33 1012.99 1013.45 1013.98 1014.54 1015.03 1015.14 1015.26 1015.37 1015.38 1015.52 1015.62 1015.72 1015.75 1015.85 1015.94 1015.89 1016.24 1016.23 1016.17 1015.99 1015.87 1015.74 1015.64 1015.47 1015.30 1015.21 1015.28 1015.37 1015.54 1015.22 1014.41 1013.65 1013.35 1014.03 1014.42 1014.88 1015.12 1015.32 1015.43 1015.71
1011.19 1012.03 1012.69 1013.02 1013.43 1013.94 1014.40 1015.08 1015.25 1015.39 1015.54 1015.50 1015.58 1015.69 1015.84 1015.62 1015.69 1015.68 1016.60 1016.63 1016.55 1016.35 1016.20 1016.01 1015.83 1015.62 1015.29 1014.82 1014.63 1014.75 1014.92 1014.37 1013.95 1013.68 1013.55 1013.67 1013.60 1013.97 1014.53 1015.01 1015.31 1015.46 1015.40
1010.54 1011.69 1012.56 1013.16 1013.32 1013.45 1013.95 1014.46 1014.73 1014.89 1015.00 1015.09 1015.19 1015.19 1015.59 1015.66 1015.78 1015.75 1016.51 1016.68 1016.60 1016.40 1016.18 1015.92 1015.71 1015.34 1014.95 1013.75 1013.78 1014.43 1013.89 1013.54 1013.52 1013.20 1012.58 1012.83 1013.34 1013.70 1014.06 1014.68 1015.03 1015.19 1015.28
1010.06 1010.83 1012.13 1013.10 1013.28 1013.21 1013.94 1014.23 1014.33 1014.56 1014.90 1015.41 1015.57 1015.44 1015.56 1015.37 1015.64 1015.45 1015.54 1015.73 1015.80 1015.89 1015.35 1015.25 1014.86 1014.63 1014.77 1014.73 1014.17 1014.03 1013.69 1013.35 1013.12 1012.63 1012.44 1013.04 1012.85 1013.06 1013.62 1014.26 1014.64 1014.95 1014.99
1010.03 1010.82 1011.55 1012.52 1012.91 1012.86 1013.23 1013.45 1014.25 1014.72 1015.01 1015.35 1015.96 1015.93 1015.67 1015.35 1015.77 1015.84 1015.94 1015.88 1015.93 1015.97 1015.97 1015.67 1015.29 1015.49 1015.20 1014.94 1014.80 1014.73 1014.43 1013.99 1013.17 1013.13 1012.70 1013.43 1013.78 1013.85 1013.88 1014.08 1014.34 1014.37 1014.64
1010.04 1010.98 1011.70 1012.46 1012.99 1013.39 1013.66 1014.10 1014.62 1015.07 1015.40 1015.84 1016.19 1016.68 1016.23 1016.04 1016.43 1016.30 1016.51 1016.35 1016.51 1016.51 1016.34 1016.20 1015.95 1015.87 1015.64 1015.17 1014.99 1014.99 1014.62 1014.28 1014.07 1014.08 1013.47 1013.62 1014.11 1014.37 1014.29 1014.12 1014.10 1014.30 1014.26
1010.21 1011.22 1012.05 1012.57 1013.23 1013.48 1014.04 1014.48 1014.96 1015.50 1016.02 1016.32 1016.76 1017.04 1017.11 1016.81 1017.08 1016.70 1016.73 1016.79 1016.85 1016.98 1017.07 1016.63 1016.41 1016.14 1015.79 1015.45 1015.19 1014.81 1014.73 1014.53 1014.20 1013.90 1013.75 1013.72 1013.95 1014.16 1014.11 1014.08 1014.05 1013.96 1014.10
1010.20 1011.27 1012.21 1012.92 1013.47 1014.00 1014.45 1014.74 1015.19 1015.81 1016.17 1016.52 1017.18 1017.58 1017.58 1017.54 1017.52 1017.30 1017.41 1017.51 1017.63 1017.37 1017.19 1016.94 1016.71 1016.19 1015.75 1015.23 1015.04 1014.83 1014.54 1014.14 1013.90 1013.80 1013.63 1013.41 1013.20 1014.16 1014.75 1014.71 1014.66 1014.37 1014.10
1010.17 1011.40 1012.38 1012.93 1013.76 1014.20 1014.64 1014.86 1015.33 1015.99 1016.46 1016.93 1017.27 1017.74 1018.05 1018.15 1018.06 1017.84 1017.77 1018.03 1018.15 1017.74 1017.71 1017.53 1017.15 1016.68 1016.13 1015.73 1015.16 1014.79 1014.46 1014.05 1013.72 1013.54 1013.38 1013.22 1014.06 1014.47 1014.98 1015.14 1015.36 1015.24 1014.74
1010.14 1011.37 1012.44 1013.21 1013.87 1014.56 1014.99 1015.34 1015.91 1016.48 1016.63 1017.04 1017.37 1017.75 1018.16 1018.41 1018.48 1018.27 1018.41 1018.52 1018.08 1017.80 1017.92 1018.00 1017.86 1017.30 1016.77 1016.08 1015.69 1015.01 1014.47 1013.88 1013.47 1013.05 1013.04 1013.30 1014.43 1014.88 1014.82 1015.23 1015.27 1015.52 1015.71
1010.41 1011.57 1012.56 1013.27 1014.01 1014.55 1015.00 1015.47 1015.84 1016.34 1016.66 1017.13 1017.62 1018.19 1018.25 1018.55 1018.67 1018.46 1018.62 1018.84 1018.41 1018.39 1018.40 1018.52 1017.87 1017.49 1017.03 1016.62 1016.01 1014.72 1013.95 1013.73 1013.35 1013.15 1013.79 1014.47 1015.02 1015.53 1015.45 1015.47 1015.21 1015.34 1015.70
1010.75 1011.58 1012.48 1013.27 1014.07 1014.40 1014.70 1015.01 1015.65 1016.15 1016.84 1017.48 1018.02 1018.50 1018.61 1018.69 1018.66 1018.71 1018.85 1018.90 1018.63 1018.88 1019.26 1019.01 1018.71 1017.78 1016.98 1017.16 1016.04 1015.06 1013.52 1013.06 1013.78 1013.95 1013.86 1014.63 1015.33 1015.51 1015.77 1015.34 1015.27 1015.39 1015.62
1010.78 1011.68 1012.59 1013.55 1014.24 1014.32 1014.34 1014.53 1015.02 1015.88 1016.62 1017.35 1018.19 1018.78 1019.14 1019.23 1019.20 1019.33 1019.23 1019.51 1019.63 1019.13 1019.31 1019.36 1019.29 1018.50 1017.55 1017.77 1017.31 1015.66 1013.83 1013.32 1014.17 1013.85 1014.52 1014.86 1015.34 1014.97 1014.97 1015.39 1015.55 1014.93 1015.49
1010.78 1011.43 1012.20 1013.08 1013.73 1013.89 1014.15 1015.09 1015.74 1016.53 1017.23 1017.63 1018.25 1018.69 1019.22 1019.47 1019.79 1019.93 1019.96 1019.69 1019.94 1019.86 1019.96 1019.83 1019.76 1019.42 1018.84 1018.32 1018.22 1017.84 1016.36 1015.27 1015.36 1013.98 1014.34 1014.87 1015.03 1015.48 1015.39 1015.35 1015.32 1014.29 1015.11
1010.72 1011.59 1012.04 1012.58 1013.24 1013.88 1014.66 1014.93 1015.54 1015.81 1016.20 1016.76 1017.79 1018.69 1019.29 1019.71 1020.09 1020.22 1020.27 1020.06 1020.16 1020.40 1020.67 1020.60 1020.28 1020.03 1019.58 1018.98 1018.47 1018.53 1018.60 1018.40 1017.30 1016.01 1015.29 1015.25 1015.77 1015.43 1015.75 1016.09 1015.39 1014.60 1015.01
1010.55 1011.72 1012.33 1012.64 1013.11 1013.95 1014.56 1014.68 1015.22 1015.11 1015.97 1017.27 1018.28 1019.03 1019.68 1020.10 1020.29 1020.53 1020.57 1020.66 1020.81 1020.94 1021.24 1021.27 1020.87 1020.73 1020.35 1020.02 1019.32 1019.03 1018.94 1018.35 1018.44 1018.08 1016.59 1015.86 1015.69 1016.03 1016.10 1016.24 1016.09 1015.63 1016.22
1010.19 1011.38 1012.20 1012.82 1013.23 1014.04 1014.62 1014.96 1015.26 1015.46 1016.48 1017.39 1018.21 1018.66 1019.21 1019.88 1020.41 1020.76 1020.82 1021.21 1021.39 1021.38 1021.59 1021.45 1021.28 1021.35 1020.97 1020.90 1020.57 1020.14 1019.81 1019.70 1019.17 1018.81 1018.22 1017.45 1017.09 1016.23 1016.13 1016.40 1016.45 1016.52 1017.06
Wind_Speed
14 14 8 9 8 7 7 6 6 7 10 10 11 11 10 9 8 8 8 7 7 7 7 5 4 3 4 5 5 6 6 5 5 6 6 8 8 7 6 4 4 8 10
17 14 9 9 8 8 7 6 6 8 9 9 11 11 10 9 8 8 8 7 6 7 6 5 3 3 3 3 3 4 4 3 3 2 5 9 10 7 5 3 4 10 10
16 13 12 10 10 9 9 7 8 9 9 9 10 10 9 9 8 6 6 5 5 5 4 4 3 2 2 2 2 2 2 2 1 5 8 7 8 11 6 3 4 8 8
15 14 12 10 10 10 10 11 9 9 10 9 10 11 10 9 8 6 5 3 2 2 2 2 2 2 2 1 1 0 0 1 3 9 10 7 13 12 7 5 5 7 7
13 13 13 10 11 10 11 11 11 9 9 10 9 10 10 9 7 6 4 2 1 1 2 3 3 0 1 2 2 2 3 3 6 12 12 2 4 14 11 7 8 8 8
11 13 10 9 8 11 9 10 10 9 8 9 8 8 9 9 7 6 4 2 2 3 4 4 4 3 4 5 5 5 5 6 8 14 8 8 6 13 11 8 8 6 10
14 13 13 10 10 11 11 10 10 9 8 8 7 7 7 7 6 5 3 3 3 4 5 6 6 5 6 7 7 7 7 8 10 14 3 4 5 11 9 9 10 9 10
13 14 13 13 12 13 13 12 11 9 8 8 8 8 8 8 8 7 5 2 2 4 5 5 6 7 7 8 9 8 9 9 10 11 11 6 10 11 9 9 10 11 11
12 13 13 13 14 15 14 13 12 10 10 9 8 9 11 11 11 11 11 9 8 5 4 3 4 5 5 7 9 10 9 9 11 11 12 7 12 9 10 13 12 11 12
10 10 10 12 11 12 11 13 13 12 12 11 9 9 9 9 9 7 11 10 8 7 6 5 4 5 6 7 10 10 9 8 13 14 11 9 12 9 11 12 11 9 12
11 12 10 10 9 10 11 11 13 12 9 10 10 6 7 4 3 7 10 7 8 7 7 6 6 7 9 14 13 12 10 9 11 9 5 9 10 12 12 11 9 9 9
14 14 11 10 10 9 8 8 7 6 6 5 4 3 5 3 5 6 6 3 3 7 6 6 9 11 13 8 5 8 7 7 6 11 8 11 12 11 11 7 7 9 9
15 11 14 9 8 9 8 6 5 4 5 5 6 4 4 2 1 1 1 1 3 1 4 6 7 6 11 8 9 8 10 7 8 7 12 4 11 10 6 6 7 11 12
14 13 13 15 11 8 8 5 6 5 5 5 6 4 2 2 2 3 4 4 4 5 7 7 6 8 9 10 10 10 10 10 8 6 10 12 9 5 0 4 6 7 10
15 13 12 10 9 8 7 7 7 6 5 6 6 7 4 4 3 4 4 4 4 5 5 6 6 7 9 9 8 9 10 10 10 6 8 7 6 7 7 7 9 10 11
15 13 12 12 10 9 8 9 7 6 7 6 6 7 7 6 5 4 4 5 5 6 7 6 7 7 8 8 9 9 9 9 10 8 5 6 3 5 9 10 10 11 13
14 14 13 12 11 11 11 9 7 6 6 6 7 8 8 8 6 5 5 5 6 6 7 7 8 8 8 8 10 9 9 9 8 9 8 6 5 10 24 23 21 17 13
14 14 13 11 12 11 10 8 7 7 6 6 6 7 9 8 7 5 5 6 6 6 7 8 8 8 8 8 8 9 9 9 10 9 9 6 9 6 11 18 22 20 17
14 15 13 13 12 11 10 9 8 8 6 6 6 6 8 8 7 5 5 6 6 5 6 7 8 7 8 8 9 10 10 9 9 7 7 5 10 8 5 12 15 18 19
13 14 13 12 13 12 9 9 7 7 7 6 6 6 6 7 6 4 5 6 5 6 6 8 8 8 8 9 10 9 7 7 6 5 7 6 7 6 7 8 6 8 14
13 15 15 14 13 10 9 8 8 7 7 6 6 7 7 6 6 6 5 6 6 6 8 9 8 9 6 10 9 10 7 4 5 7 4 4 4 4 6 5 5 5 5
14 15 14 14 13 10 8 7 7 7 6 7 6 7 7 7 8 7 6 6 7 4 7 8 9 7 5 8 8 9 4 2 6 2 4 3 5 6 4 4 4 6 5
15 15 15 15 15 10 9 7 7 7 7 6 7 6 7 7 7 6 6 6 6 6 6 7 8 9 7 6 8 7 6 6 10 5 1 4 7 8 8 7 8 5 4
15 14 15 15 14 10 10 9 11 8 8 7 5 7 6 7 6 6 6 7 6 5 6 6 7 7 7 6 5 6 5 4 5 6 7 6 9 6 8 7 6 7 9
14 12 13 13 13 12 12 10 9 8 9 7 6 8 7 6 7 6 7 7 6 5 6 7 7 8 6 7 6 6 6 3 1 6 7 7 7 6 5 6 8 8 12
14 14 13 13 13 12 11 9 9 8 10 8 8 6 5 5 5 6 6 6 6 5 6 5 6 7 7 6 6 5 5 5 6 6 9 10 10 7 4 6 7 8 8
Wind_Direction
120 122 120 115 117 110 101 102 101 109 122 132 131 131 131 137 137 133 134 138 139 146 144 131 126 99 77 64 59 58 56 58 70 90 109 118 118 115 126 187 204 136 120
114 129 117 116 114 108 99 86 87 98 108 124 131 132 136 141 144 143 144 152 153 164 155 150 146 123 95 80 71 75 76 65 78 141 168 152 137 136 156 217 319 131 127
127 126 138 122 122 114 99 81 85 94 103 114 120 123 126 132 142 141 142 149 160 161 163 162 164 144 102 80 55 48 71 99 201 244 227 220 155 143 167 152 107 125 132
132 140 137 132 132 134 121 110 95 95 103 105 111 112 116 122 128 128 126 125 126 156 180 195 200 214 162 149 186 108 298 272 261 262 250 185 149 136 162 177 152 152 157
137 122 117 134 134 131 126 119 113 103 104 102 109 118 120 121 122 121 115 113 119 243 251 248 246 209 224 228 266 282 283 260 254 263 254 281 321 141 161 188 182 182 192
111 108 123 123 109 108 107 111 104 101 102 101 103 114 119 124 129 134 138 157 215 232 249 270 270 202 220 223 229 240 245 264 273 260 234 119 283 139 158 198 248 221 195
116 122 119 100 106 105 102 98 97 104 111 111 113 119 124 128 136 152 166 202 234 262 280 290 288 257 234 245 246 241 247 260 272 289 302 283 196 148 164 203 219 217 198
124 120 123 102 90 90 94 90 88 89 92 99 95 103 97 98 91 83 67 31 317 315 309 305 307 297 279 256 253 251 245 247 269 264 281 253 142 157 182 218 231 230 211
132 130 133 124 107 90 83 84 83 81 85 85 84 87 87 86 86 83 72 60 54 48 41 11 335 318 299 288 268 257 245 246 265 274 277 256 153 169 202 222 228 235 225
129 118 113 141 132 125 111 90 86 78 76 79 78 93 102 98 96 105 121 49 41 39 37 25 2 323 290 257 247 245 247 259 252 264 262 258 155 180 224 242 246 243 245
143 127 131 133 129 126 121 116 115 117 126 130 129 154 154 108 150 103 59 49 31 12 360 349 328 303 281 263 237 231 226 244 248 246 265 311 181 193 221 238 253 264 237
154 144 135 143 137 144 123 128 112 99 82 81 78 125 102 92 45 55 97 75 42 357 292 308 283 273 257 297 207 215 241 270 263 257 269 171 183 207 231 244 241 245 249
153 151 135 134 150 149 136 145 150 143 123 98 70 49 73 109 65 119 70 46 346 15 328 314 305 309 347 321 324 325 319 290 272 275 263 213 187 216 255 256 285 257 242
155 152 149 154 164 146 151 137 127 123 117 103 78 43 62 69 55 10 18 344 350 357 350 343 331 339 319 323 314 314 305 304 301 303 307 45 19 20 72 229 269 283 280
154 149 146 141 141 138 129 117 110 121 92 97 88 55 36 54 44 25 31 14 12 358 357 341 338 333 323 320 326 312 309 311 298 277 300 53 35 344 324 287 272 276 280
154 154 145 140 141 139 119 118 113 104 116 89 76 62 50 51 20 38 31 22 13 1 345 338 345 325 325 312 308 307 310 301 298 298 297 296 219 245 270 288 289 272 274
163 151 151 141 139 135 129 125 109 109 107 101 94 70 60 41 51 15 35 18 12 355 345 347 336 333 323 320 312 312 304 292 294 297 297 284 263 83 52 47 30 22 355
163 156 151 144 142 144 127 128 117 113 105 98 89 81 66 57 34 41 39 30 1 3 360 350 343 335 330 325 324 315 310 298 290 289 272 283 81 81 68 56 48 37 34
161 158 154 148 143 138 131 113 109 118 108 96 92 87 76 62 45 38 37 29 359 15 14 354 343 339 329 327 317 312 300 293 295 299 310 27 46 33 57 71 69 48 29
166 160 156 155 149 145 138 137 130 128 123 115 102 87 79 74 57 37 57 34 10 18 10 358 349 346 326 340 318 296 294 298 290 284 78 36 40 39 46 43 50 62 45
167 171 168 157 161 159 159 154 149 140 127 116 102 98 87 76 72 48 43 36 16 36 11 8 351 349 358 355 319 329 290 178 29 331 56 61 21 41 29 35 41 46 38
179 176 172 168 170 180 169 167 144 138 130 114 106 95 79 70 57 62 46 40 25 29 35 19 5 354 7 18 351 301 344 165 25 99 4 17 28 351 8 52 23 41 38
186 183 177 176 180 182 145 126 129 118 133 143 141 115 86 79 69 62 59 54 30 21 24 24 15 16 347 22 27 2 335 353 340 72 277 6 14 350 324 336 347 6 98
191 187 187 177 179 166 167 162 165 167 166 141 129 115 108 93 77 69 62 58 53 42 25 16 22 2 6 11 11 12 8 321 337 322 343 20 345 4 7 335 356 8 13
185 185 200 180 179 163 186 174 181 189 114 138 127 139 110 101 81 69 58 53 48 45 37 20 21 16 17 2 13 3 358 304 301 305 310 342 350 23 10 30 10 20 14
182 185 195 186 182 173 186 186 192 157 154 153 154 151 135 117 104 75 72 64 48 44 30 28 27 26 19 21 357 9 10 353 352 333 327 328 326 353 324 52 22 31 6